CET,Max TemperatureF,Mean TemperatureF,Min TemperatureF,Max Dew PointF,MeanDew PointF,Min DewpointF,Max Humidity, Mean Humidity, Min Humidity, Max Sea Level PressureIn, Mean Sea Level PressureIn, Min Sea Level PressureIn, Max VisibilityMiles, Mean VisibilityMiles, Min VisibilityMiles, Max Wind SpeedMPH, Mean Wind SpeedMPH, Max Gust SpeedMPH,PrecipitationIn, CloudCover, Events, WindDirDegrees
2014-1-1,50,48,45,46,43,39,93,80,66,29.64,29.48,29.18,19,7,4,45,28,,0.00,6,Rain,195
2014-1-2,50,48,47,47,44,41,93,81,70,29.51,29.32,29.15,18,7,3,40,32,39,0.00,5,Rain,218
2014-1-3,51,46,42,48,43,37,94,79,52,29.49,29.36,29.30,11,6,2,53,35,,0.00,4,Rain,213
2014-1-4,50,48,46,46,43,36,87,77,53,29.55,29.40,29.24,19,7,6,52,36,60,0.00,5,Rain,202
2014-1-5,48,46,43,43,39,36,87,74,61,29.67,29.52,29.30,19,8,6,43,25,,0.00,5,Rain,239
2014-1-6,52,49,46,50,47,43,94,83,68,29.44,29.39,29.30,10,6,4,47,38,,0.00,6,Rain,210
2014-1-7,52,51,50,46,45,43,87,78,68,29.73,29.59,29.44,14,6,5,45,39,59,0.00,3,Rain,220
2014-1-8,51,50,49,47,45,43,87,79,69,29.94,29.85,29.71,11,7,6,40,32,,0.00,4,,237
2014-1-9,51,46,42,50,45,39,100,86,69,29.81,29.55,29.39,19,6,3,45,31,43,0.00,7,Rain,246
2014-1-10,50,47,44,45,40,38,87,77,65,29.92,29.86,29.74,19,9,6,41,32,,0.00,4,,259
2014-1-11,47,46,44,46,39,34,100,75,57,30.17,29.94,29.80,19,8,3,37,29,44,0.00,5,Rain,277
2014-1-12,46,44,42,39,36,33,81,70,54,30.23,30.09,29.80,19,8,6,31,15,24,0.00,4,,197
2014-1-13,49,46,43,46,42,38,93,80,63,29.81,29.69,29.59,17,7,3,43,26,34,0.00,5,Rain,223
2014-1-14,47,46,44,43,41,34,93,81,60,29.71,29.63,29.56,10,7,5,25,18,,0.00,7,Rain,188
2014-1-15,50,46,43,48,42,34,100,82,56,29.71,29.56,29.44,17,6,3,32,23,,0.00,7,Rain,198
2014-1-16,50,48,46,47,45,42,93,85,75,29.46,29.35,29.30,15,6,2,33,26,,0.00,7,Rain,198
2014-1-17,50,48,46,45,43,41,87,80,69,29.42,29.32,29.24,14,7,4,40,30,,0.00,7,Rain,197
2014-1-18,48,47,46,46,43,41,93,81,70,29.47,29.44,29.42,16,8,6,25,20,,0.00,6,Rain,160
2014-1-19,49,46,42,45,41,38,93,81,68,29.59,29.45,29.39,16,7,3,32,21,,0.00,6,Rain,146
2014-1-20,46,44,42,45,40,35,93,83,65,29.85,29.72,29.59,19,6,3,15,9,,0.00,7,Rain,37
2014-1-21,48,45,42,39,37,34,81,72,57,29.88,29.85,29.83,6,6,6,13,9,,0.00,7,,10
2014-1-22,47,43,39,45,37,33,93,77,56,29.85,29.81,29.77,16,8,4,26,19,,0.00,7,Rain,174
2014-1-23,48,44,41,45,41,36,93,83,70,29.85,29.78,29.68,19,7,3,31,19,38,0.00,6,Rain,238
2014-1-24,46,43,40,41,38,35,87,76,59,30.01,29.93,29.80,19,8,2,23,15,32,0.00,7,Rain,282
2014-1-25,47,43,39,45,39,32,100,79,52,30.01,29.83,29.55,19,7,1,38,26,47,0.00,7,Rain,202
2014-1-26,47,42,38,43,37,34,93,73,57,29.83,29.52,29.09,13,7,3,43,27,39,0.00,5,Rain,245
2014-1-27,47,44,40,39,35,32,87,70,55,29.20,29.16,29.12,19,8,6,41,29,36,0.00,6,Rain,245
2014-1-28,44,43,42,41,38,36,87,77,63,29.40,29.25,29.18,15,8,6,39,29,,0.00,7,Rain,170
2014-1-29,41,36,32,36,33,28,93,81,63,29.68,29.54,29.39,16,5,3,31,26,,0.00,7,,100
2014-1-30,41,36,33,36,32,28,87,82,74,29.75,29.70,29.65,5,4,3,23,18,,0.00,7,,102
2014-1-31,46,42,39,41,38,35,87,79,66,29.76,29.60,29.27,11,5,3,41,17,,0.00,6,Rain,165